period_start,C,m1,H,J0,J1,J2,J3,J4,J5,JA,JB,JC,JD,JJ,JK,JN,#
2015-03-21 00:04:55,0.28,1.81,0.00,24.48,26.94,29.46,4.70,27.02,1012.71,2034.00,2728.42,2814.41,3056.70,349.92,344.30,11.22,0000 0000 0000 0000 000000
2015-03-21 00:09:56,0.27,1.82,0.00,24.48,26.94,29.50,4.70,27.13,1012.71,2034.00,2725.59,2812.35,3054.39,349.89,344.52,11.25,0000 0000 0000 0000 000000
2015-03-21 00:14:57,0.22,1.83,0.00,24.48,26.94,29.48,4.74,27.17,1012.71,2034.00,2723.40,2810.72,3052.59,350.33,344.95,11.27,0000 0000 0000 0000 000000
2015-03-21 00:19:59,0.18,1.84,0.00,24.49,26.95,29.50,4.74,27.27,1012.71,2033.99,2721.42,2809.26,3050.98,349.88,344.53,11.30,0000 0000 0000 0000 000000
2015-03-21 00:25:00,0.18,1.84,0.00,24.51,26.95,29.50,4.77,27.15,1012.71,2033.99,2719.60,2807.95,3049.52,350.05,344.47,11.33,0000 0000 0000 0000 000000
2015-03-21 00:30:01,0.17,1.85,0.00,24.48,26.95,29.56,4.71,27.14,1012.71,2033.99,2717.85,2806.66,3048.22,349.86,344.48,11.36,0000 0000 0000 0000 000000
2015-03-21 00:35:03,0.15,1.85,0.00,24.47,26.95,29.48,4.70,27.12,1012.71,2033.99,2716.29,2805.60,3046.98,349.77,344.16,11.39,0000 0000 0000 0000 000000
2015-03-21 00:40:04,0.17,1.86,0.00,24.49,26.95,29.45,4.70,27.09,1012.71,2033.98,2714.56,2804.38,3045.69,350.05,344.62,11.42,0000 0000 0000 0000 000000
2015-03-21 00:45:05,0.16,1.86,0.00,24.53,26.95,29.51,4.74,27.03,1012.71,2033.99,2712.80,2803.15,3044.40,349.79,344.35,11.45,0000 0000 0000 0000 000000
2015-03-21 00:50:06,0.17,1.87,0.00,24.51,26.95,29.47,4.69,27.11,1012.71,2033.98,2711.07,2801.84,3043.02,350.23,344.87,11.48,0000 0000 0000 0000 000000
2015-03-21 00:55:07,0.18,1.87,0.00,24.46,26.95,29.51,4.70,27.18,1012.71,2033.98,2709.25,2800.63,3041.71,349.78,344.43,11.51,0000 0000 0000 0000 000000
2015-03-21 01:00:08,0.16,1.88,0.00,24.45,26.95,29.50,4.72,27.12,1012.71,2033.99,2707.54,2799.44,3040.42,350.01,344.40,11.54,0000 0000 0000 0000 000000
2015-03-21 01:05:10,0.21,1.88,0.00,24.51,26.95,29.50,4.67,27.15,1012.71,2033.99,2705.41,2797.96,3038.87,349.53,344.25,11.57,0000 0000 0000 0000 000000
2015-03-21 01:10:11,0.20,1.89,0.00,24.48,26.95,29.47,4.73,27.19,1012.71,2033.99,2703.33,2796.45,3037.24,349.93,344.57,11.60,0000 0000 0000 0000 000000
2015-03-21 01:15:12,0.19,1.90,0.00,24.43,26.95,29.47,4.73,27.14,1012.71,2033.99,2701.47,2794.99,3035.64,349.72,344.29,11.63,0000 0000 0000 0000 000000
2015-03-21 01:20:14,0.20,1.90,0.00,24.42,26.95,29.42,4.75,27.13,1012.71,2033.98,2699.41,2793.52,3034.02,350.60,345.14,11.66,0000 0000 0000 0000 000000
2015-03-21 01:25:15,0.19,1.91,0.00,24.43,26.95,29.45,4.67,27.18,1012.71,2033.98,2697.43,2792.03,3032.44,349.55,344.21,11.68,0000 0000 0000 0000 000000
2015-03-21 01:30:16,0.20,1.91,0.00,24.50,26.95,29.49,4.72,27.13,1012.71,2033.98,2695.64,2790.61,3030.88,349.97,344.57,11.71,0000 0000 0000 0000 000000
2015-03-21 01:35:17,0.18,1.92,0.00,24.52,26.95,29.51,4.72,27.21,1012.71,2033.98,2693.78,2789.27,3029.41,349.59,344.40,11.74,0000 0000 0000 0000 000000
2015-03-21 01:40:19,0.19,1.92,0.00,24.44,26.95,29.49,4.71,27.05,1012.71,2033.98,2691.95,2787.89,3027.92,350.06,344.81,11.77,0000 0000 0000 0000 000000
2015-03-21 01:45:20,0.19,1.93,0.00,24.41,26.95,29.47,4.71,27.18,1012.71,2033.97,2690.05,2786.53,3026.49,349.85,344.41,11.80,0000 0000 0000 0000 000000
2015-03-21 01:50:21,0.18,1.94,0.00,24.38,26.96,29.49,4.71,27.16,1012.71,2033.99,2688.07,2785.14,3025.00,349.79,344.44,11.83,0000 0000 0000 0000 000000
2015-03-21 01:55:23,0.18,1.94,0.00,24.41,26.97,29.47,4.74,27.28,1012.71,2033.99,2686.42,2783.84,3023.59,349.88,344.46,11.86,0000 0000 0000 0000 000000
2015-03-21 02:00:24,0.20,1.95,0.00,24.47,26.97,29.49,4.74,27.09,1012.71,2033.99,2684.47,2782.39,3022.03,350.34,344.95,11.89,0000 0000 0000 0000 000000
2015-03-21 02:05:26,0.21,1.95,0.00,24.42,26.97,29.46,4.74,27.21,1012.71,2033.98,2682.37,2780.85,3020.47,350.74,345.50,11.92,0000 0000 0000 0000 000000
2015-03-21 02:10:27,0.20,1.96,0.00,24.02,26.97,29.62,4.77,27.23,1012.72,2033.98,2680.41,2779.40,3018.74,350.45,345.54,11.95,0000 0000 0000 0000 000000
2015-03-21 02:15:28,0.26,1.97,0.00,23.66,26.97,29.82,4.82,27.25,1012.74,2033.97,2678.10,2777.64,3016.85,350.31,345.91,11.98,0000 0000 0000 0000 000000
2015-03-21 02:20:30,0.23,1.97,0.00,23.47,26.96,29.86,4.74,27.19,1012.74,2033.98,2675.55,2775.92,3014.95,350.05,345.84,12.01,0000 0000 0000 0000 000000
2015-03-21 02:25:31,0.23,1.98,0.00,23.29,26.95,29.77,4.73,27.51,1012.78,2033.99,2673.28,2774.25,3013.20,349.77,345.84,12.04,0000 0000 0000 0000 000000
2015-03-21 02:30:32,0.24,1.99,0.00,23.42,26.92,29.66,4.78,27.40,1013.06,2033.99,2670.89,2772.51,3011.24,349.21,345.18,12.07,0000 0000 0000 0000 000000
2015-03-21 02:35:33,0.24,1.99,0.00,23.92,26.91,29.65,4.72,27.23,1013.20,2033.99,2668.50,2770.76,3009.34,350.02,345.49,12.10,0000 0000 0000 0000 000000
2015-03-21 02:40:35,0.23,2.00,0.00,24.31,26.90,29.69,4.71,27.27,1013.20,2033.99,2666.33,2769.05,3007.57,349.62,344.73,12.12,0000 0000 0000 0000 000000
2015-03-21 02:45:36,0.24,2.01,0.00,24.47,26.90,29.68,4.73,27.10,1013.20,2033.97,2663.89,2767.31,3005.76,350.15,344.97,12.15,0000 0000 0000 0000 000000
2015-03-21 02:50:37,0.25,2.02,0.00,24.62,26.90,29.68,4.75,27.26,1013.20,2033.98,2661.41,2765.57,3003.87,350.26,344.94,12.18,0000 0000 0000 0000 000000
2015-03-21 02:55:39,0.25,2.02,0.00,24.58,26.90,29.68,4.74,27.18,1013.20,2033.98,2658.96,2763.81,3002.02,350.35,345.02,12.21,0000 0000 0000 0000 000000
2015-03-21 03:00:40,0.22,2.03,0.00,24.52,26.91,29.67,4.71,27.22,1013.19,2033.99,2656.57,2762.13,3000.21,350.06,344.87,12.24,0000 0000 0000 0000 000000
2015-03-21 03:05:41,0.27,2.04,0.00,24.56,26.92,29.70,4.70,27.40,1013.18,2033.98,2653.96,2760.38,2998.30,349.46,344.27,12.27,0000 0000 0000 0000 000000
2015-03-21 03:10:43,0.24,2.04,0.00,24.58,26.92,29.69,4.70,27.22,1013.00,2033.98,2651.56,2758.63,2996.47,349.51,344.01,12.30,0000 0000 0000 0000 000000
2015-03-21 03:15:44,0.23,2.05,0.00,24.42,26.92,29.70,4.72,27.23,1012.86,2033.98,2649.28,2757.00,2994.65,350.05,344.75,12.33,0000 0000 0000 0000 000000
2015-03-21 03:20:46,0.23,2.06,0.00,24.06,26.94,29.67,4.71,27.27,1013.11,2033.96,2646.95,2755.32,2992.79,350.10,345.28,12.36,0000 0000 0000 0000 000000
2015-03-21 03:25:47,0.24,2.07,0.00,23.78,26.95,29.80,4.71,27.21,1013.18,2033.95,2644.47,2753.60,2990.93,349.96,345.57,12.39,0000 0000 0000 0000 000000
2015-03-21 03:30:48,0.24,2.07,0.00,23.60,26.94,29.82,4.69,27.20,1013.19,2033.93,2642.02,2751.92,2989.08,349.59,345.17,12.42,0000 0000 0000 0000 000000
2015-03-21 03:35:50,0.23,2.08,0.00,23.40,26.92,29.86,4.82,27.34,1013.19,2033.95,2639.62,2750.42,2987.31,349.86,346.14,12.45,0000 0000 0000 0000 000000
2015-03-21 03:40:51,0.26,2.09,0.00,23.30,26.91,29.76,4.71,27.37,1013.15,2033.97,2637.14,2748.67,2985.44,349.69,345.85,12.48,0000 0000 0000 0000 000000
2015-03-21 03:45:52,0.21,2.09,0.00,23.66,26.90,29.64,4.74,27.39,1013.09,2033.96,2635.00,2747.16,2983.74,349.86,345.54,12.51,0000 0000 0000 0000 000000
2015-03-21 03:50:53,0.21,2.10,0.00,24.07,26.89,29.68,4.76,27.26,1013.13,2033.98,2632.97,2745.67,2982.15,350.05,345.09,12.53,0000 0000 0000 0000 000000
2015-03-21 03:55:55,0.21,2.11,0.00,24.36,26.89,29.71,4.69,27.11,1013.16,2033.97,2630.80,2744.14,2980.51,349.76,344.84,12.56,0000 0000 0000 0000 000000
2015-03-21 04:00:56,0.22,2.11,0.00,24.50,26.89,29.69,4.73,27.37,1013.17,2033.98,2628.65,2742.56,2978.83,350.17,344.92,12.59,0000 0000 0000 0000 000000
2015-03-21 04:05:57,0.21,2.12,0.00,24.58,26.90,29.68,4.65,27.44,1013.20,2033.98,2626.43,2741.02,2977.18,349.28,343.89,12.62,0000 0000 0000 0000 000000
2015-03-21 04:10:59,0.22,2.13,0.00,24.53,26.90,29.70,4.77,27.25,1013.20,2033.98,2624.34,2739.54,2975.56,350.22,344.95,12.65,0000 0000 0000 0000 000000
2015-03-21 04:16:00,0.21,2.13,0.00,24.43,26.90,29.74,4.71,27.27,1013.19,2033.97,2622.36,2737.99,2973.85,349.77,344.52,12.68,0000 0000 0000 0000 000000
2015-03-21 04:21:01,0.23,2.14,0.00,24.07,26.92,29.78,4.75,27.29,1013.20,2033.92,2620.05,2736.34,2972.04,350.34,345.73,12.71,0000 0000 0000 0000 000000
2015-03-21 04:26:02,0.22,2.15,0.00,23.78,26.92,29.81,4.76,27.24,1013.19,2033.84,2617.72,2734.64,2970.22,350.09,345.63,12.74,0000 0000 0000 0000 000000
2015-03-21 04:31:03,0.18,2.15,0.00,23.64,26.92,29.81,4.69,27.14,1013.15,2033.76,2615.65,2733.19,2968.66,349.36,345.37,12.77,0000 0000 0000 0000 000000
2015-03-21 04:36:05,0.18,2.16,0.00,23.41,26.91,29.79,4.80,27.32,1013.00,2033.67,2613.63,2731.76,2967.15,350.10,346.05,12.80,0000 0000 0000 0000 000000
2015-03-21 04:41:06,0.23,2.16,0.00,23.69,26.90,29.69,4.79,27.21,1013.14,2033.72,2611.73,2730.46,2965.71,349.86,345.56,12.83,0000 0000 0000 0000 000000
2015-03-21 04:46:07,0.16,2.17,0.00,24.24,26.90,29.69,4.74,27.28,1013.14,2033.81,2610.00,2729.27,2964.41,350.12,345.12,12.86,0000 0000 0000 0000 000000
2015-03-21 04:51:09,0.19,2.18,0.00,24.51,26.90,29.71,4.66,27.23,1013.05,2033.90,2608.32,2727.96,2963.07,349.85,344.59,12.89,0000 0000 0000 0000 000000
2015-03-21 04:56:10,0.19,2.18,0.00,24.65,26.90,29.69,4.65,27.22,1012.88,2033.87,2606.54,2726.67,2961.63,349.23,343.86,12.92,0000 0000 0000 0000 000000
2015-03-21 05:01:11,0.18,2.19,0.00,24.67,26.90,29.72,4.75,27.29,1012.82,2033.92,2604.90,2725.53,2960.39,349.69,344.11,12.94,0000 0000 0000 0000 000000
2015-03-21 05:06:13,0.15,2.19,0.00,24.61,26.90,29.73,4.77,27.22,1013.07,2033.85,2603.15,2724.33,2959.10,350.29,344.83,12.97,0000 0000 0000 0000 000000
2015-03-21 05:11:14,0.18,2.20,0.00,24.56,26.92,29.74,4.63,27.07,1012.90,2033.85,2601.45,2723.01,2957.71,349.80,344.45,13.00,0000 0000 0000 0000 000000
2015-03-21 05:16:15,0.16,2.20,0.00,24.15,26.92,29.78,4.75,27.20,1013.12,2033.66,2599.51,2721.66,2956.21,350.19,345.28,13.03,0000 0000 0000 0000 000000
2015-03-21 05:21:16,0.15,2.21,0.00,23.87,26.92,29.80,4.76,27.15,1013.18,2033.39,2597.59,2720.35,2954.67,350.55,346.04,13.06,0000 0000 0000 0000 000000
2015-03-21 05:26:18,0.16,2.21,0.00,23.70,26.92,29.84,4.71,27.18,1013.17,2033.13,2595.70,2718.96,2953.33,349.51,345.23,13.09,0000 0000 0000 0000 000000
2015-03-21 05:31:19,0.21,2.22,0.00,23.51,26.91,29.78,4.77,27.23,1013.15,2033.24,2593.99,2717.70,2951.90,350.20,346.08,13.12,0000 0000 0000 0000 000000
2015-03-21 05:36:20,0.22,2.22,0.00,23.37,26.90,29.80,4.66,27.23,1013.05,2033.40,2592.24,2716.55,2950.65,349.72,345.86,13.15,0000 0000 0000 0000 000000
2015-03-21 05:41:21,0.20,2.23,0.00,23.57,26.88,29.71,4.82,27.24,1013.05,2033.67,2590.66,2715.48,2949.47,351.02,346.82,13.18,0000 0000 0000 0000 000000
2015-03-21 05:46:23,0.15,2.24,0.00,24.13,26.87,29.67,4.73,27.16,1013.19,2033.86,2589.33,2714.40,2948.32,349.73,344.87,13.21,0000 0000 0000 0000 000000
2015-03-21 05:51:24,0.16,2.24,0.00,24.50,26.87,29.69,4.72,27.08,1013.20,2033.81,2587.85,2713.33,2947.11,349.55,344.52,13.24,0000 0000 0000 0000 000000
2015-03-21 05:56:25,0.13,2.24,0.00,24.60,26.87,29.69,4.68,27.16,1013.19,2033.75,2586.35,2712.26,2945.93,349.84,344.38,13.27,0000 0000 0000 0000 000000
2015-03-21 06:01:27,0.14,2.25,0.00,24.61,26.87,29.69,4.75,27.17,1013.20,2033.67,2584.80,2711.17,2944.76,350.28,344.94,13.30,0000 0000 0000 0000 000000
2015-03-21 06:06:28,0.10,2.25,0.00,24.53,26.88,29.71,4.71,27.26,1013.20,2033.38,2583.34,2710.14,2943.64,348.76,343.72,13.33,0000 0000 0000 0000 000000
2015-03-21 06:11:29,0.16,2.26,0.00,24.19,26.90,29.77,4.66,27.13,1013.20,2033.52,2581.97,2709.12,2942.67,349.50,344.67,13.35,0000 0000 0000 0000 000000
2015-03-21 06:16:30,0.11,2.26,0.00,23.92,26.90,29.81,4.72,27.14,1013.20,2033.21,2580.44,2708.00,2941.53,350.06,345.39,13.38,0000 0000 0000 0000 000000
2015-03-21 06:21:31,0.16,2.26,0.00,23.79,26.90,29.82,4.68,27.00,1013.20,2033.19,2578.73,2706.97,2940.25,349.67,345.38,13.41,0000 0000 0000 0000 000000
2015-03-21 06:26:33,0.11,2.27,0.00,23.61,26.90,29.84,4.75,27.11,1013.20,2033.15,2577.34,2705.96,2939.22,349.87,345.48,13.44,0000 0000 0000 0000 000000
2015-03-21 06:31:34,0.16,2.27,0.00,23.46,26.88,29.78,4.75,27.03,1013.20,2033.16,2575.95,2705.00,2938.10,350.36,346.60,13.47,0000 0000 0000 0000 000000
2015-03-21 06:36:35,0.18,2.28,0.00,23.36,26.87,29.74,4.78,27.11,1013.21,2033.28,2574.63,2704.05,2937.08,350.08,346.43,13.50,0000 0000 0000 0000 000000
2015-03-21 06:41:37,0.16,2.28,0.00,23.29,26.85,29.71,4.75,27.05,1013.20,2033.54,2573.37,2703.14,2936.11,349.68,345.83,13.53,0000 0000 0000 0000 000000
2015-03-21 06:46:38,0.16,2.29,0.00,23.43,26.84,29.66,4.76,27.05,1013.20,2033.61,2572.00,2702.20,2935.14,350.56,346.56,13.56,0000 0000 0000 0000 000000
2015-03-21 06:51:39,0.17,2.29,0.00,23.90,26.82,29.65,4.70,27.07,1013.20,2033.83,2570.75,2701.31,2934.09,349.93,345.31,13.59,0000 0000 0000 0000 000000
2015-03-21 06:56:40,0.15,2.30,0.00,24.31,26.82,29.65,4.77,27.20,1013.20,2033.93,2569.54,2700.42,2933.10,350.01,345.18,13.62,0000 0000 0000 0000 000000
2015-03-21 07:01:41,0.14,2.30,0.00,24.52,26.82,29.64,4.77,27.19,1013.20,2033.93,2568.16,2699.42,2932.01,350.73,345.40,13.65,0000 0000 0000 0000 000000
2015-03-21 07:06:43,0.15,2.31,0.00,24.52,26.83,29.66,4.77,27.32,1013.20,2033.90,2566.75,2698.38,2930.92,350.25,345.14,13.68,0000 0000 0000 0000 000000
2015-03-21 07:11:44,0.12,2.31,0.00,24.32,26.85,29.67,4.71,27.21,1013.20,2033.86,2565.47,2697.45,2929.90,349.65,345.06,13.71,0000 0000 0000 0000 000000
2015-03-21 07:16:45,0.12,2.31,0.00,24.05,26.85,29.72,4.72,27.15,1013.20,2033.75,2564.02,2696.46,2928.76,350.10,345.39,13.74,0000 0000 0000 0000 000000
2015-03-21 07:21:47,0.08,2.32,0.00,23.81,26.85,29.80,4.75,27.22,1013.20,2033.32,2562.56,2695.40,2927.66,349.85,345.50,13.76,0000 0000 0000 0000 000000
2015-03-21 07:26:48,0.17,2.32,0.00,23.69,26.86,29.80,4.69,27.15,1013.20,2033.38,2561.26,2694.48,2926.64,349.98,345.41,13.79,0000 0000 0000 0000 000000
2015-03-21 07:31:50,0.16,2.32,0.00,23.53,26.85,29.79,4.76,27.39,1013.20,2033.44,2559.68,2693.41,2925.50,349.70,345.58,13.82,0000 0000 0000 0000 000000
2015-03-21 07:36:51,0.16,2.33,0.00,23.40,26.85,29.76,4.74,27.28,1013.20,2033.57,2558.46,2692.44,2924.46,350.12,346.12,13.85,0000 0000 0000 0000 000000
2015-03-21 07:41:52,0.19,2.34,0.00,23.30,26.83,29.73,4.71,27.17,1013.20,2033.71,2556.71,2691.28,2923.24,349.64,345.76,13.88,0000 0000 0000 0000 000000
2015-03-21 07:46:54,0.18,2.34,0.00,23.42,26.82,29.68,4.79,27.23,1013.21,2033.80,2555.34,2690.23,2922.13,349.95,345.81,13.91,0000 0000 0000 0000 000000
2015-03-21 07:51:55,0.15,2.35,0.00,23.94,26.82,29.63,4.78,27.23,1013.25,2033.93,2553.98,2689.26,2921.04,350.20,345.59,13.94,0000 0000 0000 0000 000000
2015-03-21 07:56:56,0.14,2.35,0.00,24.25,26.82,29.63,4.72,27.24,1013.59,2033.92,2552.71,2688.23,2919.95,349.43,344.55,13.97,0000 0000 0000 0000 000000
2015-03-21 08:01:57,0.14,2.35,0.00,24.45,26.82,29.64,4.77,27.16,1013.53,2033.95,2551.55,2687.30,2918.90,350.06,345.00,14.00,0000 0000 0000 0000 000000
2015-03-21 08:06:59,0.11,2.36,0.00,24.51,26.82,29.66,4.73,27.16,1013.42,2033.85,2550.15,2686.44,2917.83,349.94,344.90,14.03,0000 0000 0000 0000 000000
2015-03-21 08:12:00,0.13,2.36,0.00,24.20,26.84,29.69,4.78,27.27,1013.42,2033.74,2548.75,2685.49,2916.81,350.25,345.47,14.06,0000 0000 0000 0000 000000
2015-03-21 08:17:01,0.14,2.37,0.00,23.80,26.85,29.78,4.72,27.17,1013.57,2033.59,2547.13,2684.42,2915.66,350.18,345.98,14.09,0000 0000 0000 0000 000000
2015-03-21 08:22:02,0.17,2.37,0.00,23.63,26.85,29.78,4.78,27.28,1013.69,2033.63,2545.53,2683.27,2914.46,350.10,346.08,14.12,0000 0000 0000 0000 000000
2015-03-21 08:27:04,0.21,2.38,0.00,23.44,26.85,29.76,4.75,27.17,1013.68,2033.77,2543.85,2682.09,2913.22,349.94,345.95,14.15,0000 0000 0000 0000 000000
2015-03-21 08:32:05,0.14,2.38,0.00,23.33,26.84,29.73,4.75,27.33,1013.69,2033.74,2542.37,2681.01,2912.02,349.85,346.17,14.17,0000 0000 0000 0000 000000
2015-03-21 08:37:06,0.18,2.39,0.00,23.72,26.82,29.65,4.76,27.08,1013.69,2033.76,2540.85,2679.93,2910.79,350.38,346.22,14.20,0000 0000 0000 0000 000000
2015-03-21 08:42:08,0.16,2.39,0.00,24.23,26.82,29.67,4.74,27.21,1013.69,2033.80,2539.54,2678.81,2909.61,349.98,345.31,14.23,0000 0000 0000 0000 000000
2015-03-21 08:47:09,0.18,2.40,0.00,24.51,26.82,29.65,4.74,27.19,1013.66,2033.80,2537.92,2677.73,2908.41,350.12,344.96,14.26,0000 0000 0000 0000 000000
2015-03-21 08:52:10,0.16,2.40,0.00,24.59,26.84,29.63,4.72,27.03,1013.68,2033.87,2536.45,2676.67,2907.18,350.30,345.13,14.29,0000 0000 0000 0000 000000
2015-03-21 08:57:12,0.17,2.41,0.00,24.50,26.85,29.66,4.71,27.20,1013.68,2033.93,2534.90,2675.51,2905.96,349.17,344.17,14.32,0000 0000 0000 0000 000000
2015-03-21 09:02:13,0.14,2.41,0.00,24.40,26.85,29.69,4.78,27.18,1013.69,2033.80,2533.41,2674.41,2904.72,350.92,345.93,14.35,0000 0000 0000 0000 000000
2015-03-21 09:07:14,0.09,2.42,0.00,24.49,26.87,29.73,4.66,27.23,1013.69,2033.36,2531.59,2673.09,2903.38,350.13,344.94,14.38,0000 0000 0000 0000 000000
2015-03-21 09:12:15,0.15,2.42,0.00,24.16,26.87,29.77,4.75,27.15,1013.69,2033.24,2530.23,2672.04,2902.16,350.15,345.53,14.41,0000 0000 0000 0000 000000
2015-03-21 09:17:17,0.17,2.42,0.00,23.82,26.88,29.82,4.71,27.09,1013.69,2033.19,2528.65,2670.89,2900.88,349.64,345.31,14.44,0000 0000 0000 0000 000000
2015-03-21 09:22:18,0.21,2.43,0.00,23.64,26.89,29.84,4.76,27.21,1013.69,2033.18,2526.80,2669.68,2899.67,350.63,346.50,14.47,0000 0000 0000 0000 000000
2015-03-21 09:27:20,0.17,2.43,0.00,23.44,26.87,29.82,4.73,27.18,1013.69,2033.20,2525.00,2668.47,2898.38,350.02,346.27,14.50,0000 0000 0000 0000 000000
2015-03-21 09:32:21,0.15,2.44,0.00,23.31,26.87,29.76,4.79,27.23,1013.69,2033.25,2523.39,2667.35,2897.16,350.13,346.48,14.53,0000 0000 0000 0000 000000
2015-03-21 09:37:22,0.20,2.45,0.00,23.33,26.85,29.72,4.73,27.25,1013.69,2033.27,2521.71,2666.20,2895.88,350.02,346.43,14.56,0000 0000 0000 0000 000000
2015-03-21 09:42:24,0.17,2.45,0.00,23.88,26.85,29.65,4.77,27.31,1013.69,2033.36,2520.14,2665.04,2894.67,350.04,345.50,14.59,0000 0000 0000 0000 000000
2015-03-21 09:47:25,0.22,2.46,0.00,24.30,26.85,29.67,4.76,27.23,1013.69,2033.48,2518.61,2663.97,2893.53,350.06,345.25,14.61,0000 0000 0000 0000 000000
2015-03-21 09:52:26,0.14,2.46,0.00,24.46,26.85,29.63,4.69,27.25,1013.71,2033.52,2517.21,2662.87,2892.38,349.81,344.88,14.64,0000 0000 0000 0000 000000
2015-03-21 09:57:27,0.19,2.47,0.00,24.55,26.85,29.67,4.71,27.18,1013.71,2033.69,2515.80,2661.87,2891.23,350.17,344.91,14.67,0000 0000 0000 0000 000000
2015-03-21 10:02:29,0.11,2.47,0.00,24.49,26.87,29.68,4.75,27.24,1013.72,2033.39,2514.22,2660.71,2890.01,349.98,344.91,14.70,0000 0000 0000 0000 000000
2015-03-21 10:07:30,0.13,2.47,0.00,24.42,26.87,29.69,4.73,27.25,1013.70,2033.17,2512.76,2659.68,2888.95,349.07,344.34,14.73,0000 0000 0000 0000 000000
2015-03-21 10:12:31,0.09,2.48,0.00,24.29,26.89,29.72,4.70,27.18,1013.83,2033.13,2511.64,2658.95,2888.03,349.82,345.12,14.76,0000 0000 0000 0000 000000
2015-03-21 10:17:32,0.13,2.48,0.00,23.87,26.90,29.81,4.77,27.23,1014.09,2033.10,2510.32,2658.07,2887.12,350.38,346.10,14.79,0000 0000 0000 0000 000000
2015-03-21 10:22:34,0.12,2.49,0.00,23.69,26.90,29.86,4.76,27.29,1013.83,2033.05,2509.11,2657.19,2886.25,349.75,345.66,14.82,0000 0000 0000 0000 000000
2015-03-21 10:27:35,0.16,2.49,0.00,23.56,26.90,29.87,4.80,27.23,1013.73,2033.05,2507.66,2656.33,2885.37,349.81,345.90,14.85,0000 0000 0000 0000 000000
2015-03-21 10:32:36,0.12,2.49,0.00,23.42,26.90,29.86,4.78,27.12,1013.74,2033.03,2506.57,2655.58,2884.45,349.94,346.18,14.88,0000 0000 0000 0000 000000
2015-03-21 10:37:37,0.10,2.50,0.00,23.33,26.90,29.78,4.74,27.22,1013.87,2033.05,2505.28,2654.83,2883.73,349.72,346.09,14.91,0000 0000 0000 0000 000000
2015-03-21 10:42:39,0.11,2.50,0.00,23.81,26.88,29.72,4.75,27.27,1014.09,2033.13,2504.46,2654.05,2883.00,349.91,345.86,14.94,0000 0000 0000 0000 000000
2015-03-21 10:47:40,0.13,2.50,0.00,24.23,26.87,29.71,4.67,27.11,1014.17,2033.16,2503.30,2653.26,2882.14,349.64,344.99,14.97,0000 0000 0000 0000 000000
2015-03-21 10:52:41,0.13,2.51,0.00,24.47,26.87,29.72,4.70,27.07,1014.17,2033.17,2502.13,2652.47,2881.24,350.04,345.07,15.00,0000 0000 0000 0000 000000
2015-03-21 10:57:43,0.15,2.51,0.00,24.58,26.87,29.69,4.83,27.25,1014.08,2033.13,2500.82,2651.61,2880.29,350.63,345.47,15.02,0000 0000 0000 0000 000000
2015-03-21 11:02:44,0.16,2.52,0.00,24.54,26.89,29.69,4.67,27.20,1013.73,2033.16,2499.30,2650.50,2879.23,349.73,344.84,15.05,0000 0000 0000 0000 000000
2015-03-21 11:07:45,0.15,2.52,0.00,24.52,26.90,29.71,4.74,27.23,1013.90,2033.07,2497.67,2649.36,2878.13,350.19,345.05,15.08,0000 0000 0000 0000 000000
2015-03-21 11:12:47,0.16,2.53,0.00,24.45,26.90,29.74,4.69,27.09,1014.15,2033.06,2496.28,2648.26,2876.99,349.36,344.50,15.11,0000 0000 0000 0000 000000
2015-03-21 11:17:48,0.16,2.53,0.00,24.47,26.92,29.75,4.68,27.13,1014.00,2033.04,2494.68,2647.28,2875.86,350.10,345.10,15.14,0000 0000 0000 0000 000000
2015-03-21 11:22:49,0.17,2.53,0.00,24.47,26.92,29.77,4.68,27.14,1013.95,2033.09,2493.21,2646.16,2874.73,350.50,345.62,15.17,0000 0000 0000 0000 000000
2015-03-21 11:27:51,0.14,2.54,0.00,24.12,26.93,29.74,4.77,27.10,1013.99,2033.07,2491.71,2645.07,2873.57,350.57,345.95,15.20,0000 0000 0000 0000 000000
2015-03-21 11:32:52,0.14,2.54,0.00,23.74,26.94,29.81,4.65,27.18,1014.12,2033.04,2490.46,2644.10,2872.46,348.93,344.95,15.23,0000 0000 0000 0000 000000
2015-03-21 11:37:53,0.13,2.55,0.00,23.56,26.93,29.87,4.81,27.23,1014.16,2033.02,2489.12,2643.17,2871.52,350.62,346.43,15.26,0000 0000 0000 0000 000000
2015-03-21 11:42:54,0.12,2.55,0.00,23.36,26.92,29.86,4.78,27.34,1014.17,2033.01,2488.01,2642.35,2870.71,349.69,346.09,15.29,0000 0000 0000 0000 000000
2015-03-21 11:47:56,0.14,2.56,0.00,23.23,26.91,29.78,4.74,27.41,1014.15,2033.02,2486.71,2641.59,2869.77,350.05,346.62,15.32,0000 0000 0000 0000 000000
2015-03-21 11:52:57,0.12,2.56,0.00,23.48,26.90,29.69,4.84,27.47,1014.12,2033.03,2485.46,2640.77,2868.88,350.12,346.51,15.35,0000 0000 0000 0000 000000
2015-03-21 11:57:58,0.14,2.56,0.00,24.01,26.88,29.70,4.74,27.40,1014.04,2033.04,2484.18,2639.80,2867.92,349.84,345.44,15.38,0000 0000 0000 0000 000000
2015-03-21 12:03:00,0.15,2.57,0.00,24.33,26.87,29.67,4.69,27.38,1014.11,2033.08,2482.77,2638.85,2866.86,350.31,345.57,15.41,0000 0000 0000 0000 000000
2015-03-21 12:08:01,0.20,2.57,0.00,24.44,26.87,29.69,4.70,27.33,1014.17,2033.11,2481.15,2637.71,2865.69,348.95,344.17,15.43,0000 0000 0000 0000 000000
2015-03-21 12:13:02,0.14,2.58,0.00,24.48,26.87,29.69,4.67,27.30,1014.11,2033.17,2479.81,2636.72,2864.60,349.78,345.07,15.46,0000 0000 0000 0000 000000
2015-03-21 12:18:04,0.19,2.58,0.00,24.51,26.87,29.70,4.73,27.14,1014.02,2033.13,2478.16,2635.56,2863.41,350.19,344.87,15.49,0000 0000 0000 0000 000000
2015-03-21 12:23:05,0.17,2.59,0.00,24.50,26.88,29.69,4.72,27.13,1014.06,2033.14,2476.38,2634.34,2862.08,349.88,345.18,15.52,0000 0000 0000 0000 000000
2015-03-21 12:28:06,0.18,2.59,0.00,24.46,26.90,29.70,4.72,27.18,1014.05,2033.07,2474.70,2633.16,2860.75,350.01,345.13,15.55,0000 0000 0000 0000 000000
2015-03-21 12:33:08,0.18,2.60,0.00,24.48,26.90,29.70,4.68,27.23,1013.97,2033.07,2473.10,2631.95,2859.46,349.55,344.79,15.58,0000 0000 0000 0000 000000
2015-03-21 12:38:09,0.13,2.61,0.00,24.43,26.90,29.70,4.70,27.18,1013.92,2033.03,2471.89,2630.90,2858.25,349.60,344.72,15.61,0000 0000 0000 0000 000000
2015-03-21 12:43:10,0.16,2.61,0.00,24.37,26.91,29.71,4.75,27.07,1013.77,2033.02,2470.49,2629.88,2857.14,350.57,345.73,15.64,0000 0000 0000 0000 000000
2015-03-21 12:48:11,0.14,2.61,0.00,24.24,26.92,29.72,4.72,27.10,1013.79,2033.02,2469.09,2628.90,2856.08,349.51,344.91,15.67,0000 0000 0000 0000 000000
2015-03-21 12:53:13,0.13,2.62,0.00,24.39,26.92,29.62,4.70,27.20,1014.10,2033.04,2467.86,2628.04,2855.14,349.79,345.04,15.70,0000 0000 0000 0000 000000
2015-03-21 12:58:14,0.15,2.62,0.00,24.39,26.92,29.64,4.69,27.12,1014.17,2033.01,2466.57,2627.19,2854.32,349.97,345.31,15.73,0000 0000 0000 0000 000000
2015-03-21 13:03:15,0.14,2.63,0.00,24.38,26.92,29.58,4.74,27.18,1014.18,2033.01,2465.25,2626.29,2853.37,350.19,345.59,15.76,0000 0000 0000 0000 000000